カタログに戻る

STARLINK-36418

運用中通信VLEO
NORAD 67422·PAYLOAD·🇺🇸 United States

打ち上げ Jan 12, 2026 から Cape Canaveral Space Force Station

Loading…

次のパス (今後24時間)

TLE

最新Source: CelesTrak SupGP

元期: Sep 14, 2026, 22:54 UTC

1 67422C 26005U   26257.95465278  .00028415  00000+0  10294-2 0  2576
2 67422  42.9993 248.8049 0001310 262.8900 169.2064 15.27558498    19

AllMySatでSTARLINK-36418をリアルタイム追跡

Download on the App Store